Location: Kergonan
(48.2337°N, 4.5518°W)
Time: 21:58:47
(UTC+00:00)

APEX - Pass Details

Date: 18 January 2020
Orbit: 330 x 1122 km, 69.9° (Epoch: 17 February)

Event Time Altitude Azimuth Distance (km) Brightness Sun altitude
Exits shadow 06:06:05 29° 341° (NNW) 981 4.3 -18.9°
Drops below altitude 10° 06:08:57 10° 16° (NNE) 1,917 6.1 -18.4°
Sets 06:11:40 0° 26° (NNE) 2,982 7.3 -18.0°
